When you browse on this site, cookies collect data to enhance your experience and personalize the content and advertising you see.
Visit our Privacy Policy to learn more. By continuing to use the site, you agree to this use of cookies and data.
  • In United Kingdom
  • List of Countries
  • For 7 days
  • Water Temperature
  • Weather Map
  • Weather Widgets
  • user-avatar
    Login

    Hourly Weather Eisenstadt

    Today, 29 February, Saturday

    Time Temperature Precipitation Wind Pressure Humidity
    00:00 -2°C° 0 mm 2 mps 724 mmHg 75%
    01:00 -2°C° 0 mm 2 mps 723 mmHg 73%
    02:00 -2°C° 0 mm 3 mps 723 mmHg 72%
    03:00 -2°C° 0 mm 3 mps 722 mmHg 71%
    04:00 -3°C° 0 mm 4 mps 722 mmHg 69%
    05:00 -3°C° 0 mm 4 mps 721 mmHg 68%
    06:00 -2°C° 0 mm 4 mps 721 mmHg 67%
    07:00 -2°C° 0 mm 4 mps 720 mmHg 67%
    08:00 -1°C° 0 mm 4 mps 720 mmHg 62%
    09:00 0°C° 0 mm 4 mps 719 mmHg 58%
    10:00 +3°C° 0 mm 4 mps 719 mmHg 53%
    11:00 +4°C° 0 mm 4 mps 718 mmHg 52%
    12:00 +4°C° 0 mm 4 mps 718 mmHg 52%
    13:00 +5°C° 0 mm 4 mps 717 mmHg 51%
    14:00 +5°C° 0 mm 5 mps 716 mmHg 53%
    15:00 +5°C° 0 mm 5 mps 716 mmHg 55%
    16:00 +5°C° 0 mm 5 mps 715 mmHg 58%
    17:00 +3°C° 0 mm 5 mps 715 mmHg 60%
    18:00 +3°C° 0 mm 5 mps 714 mmHg 62%
    19:00 +2°C° 0 mm 5 mps 714 mmHg 65%
    20:00 +1°C° 0 mm 4 mps 714 mmHg 67%
    21:00 +1°C° 0 mm 4 mps 714 mmHg 69%
    22:00 +1°C° 0 mm 3 mps 713 mmHg 71%
    23:00 +2°C° 0 mm 2 mps 713 mmHg 71%

    Tomorrow, 1 March, Sunday

    Time Temperature Precipitation Wind Pressure Humidity
    00:00 +2°C° 0 mm 2 mps 713 mmHg 71%
    01:00 +2°C° 0 mm 2 mps 713 mmHg 71%
    02:00 +2°C° 0 mm 2 mps 713 mmHg 71%
    03:00 +2°C° 0 mm 2 mps 713 mmHg 72%
    04:00 +3°C° 0 mm 1 mps 713 mmHg 72%
    05:00 +3°C° 0 mm 1 mps 713 mmHg 71%
    06:00 +3°C° 0 mm 1 mps 713 mmHg 70%
    07:00 +3°C° 0 mm 1 mps 713 mmHg 69%
    08:00 +5°C° 0 mm 1 mps 714 mmHg 67%
    09:00 +6°C° 0 mm 1 mps 714 mmHg 64%
    10:00 +7°C° 0 mm 1 mps 714 mmHg 62%
    11:00 +8°C° 0 mm 1 mps 714 mmHg 64%
    12:00 +8°C° 0 mm 1 mps 714 mmHg 67%
    13:00 +8°C° 0 mm 1 mps 714 mmHg 69%
    14:00 +8°C° 0.4 mm 1 mps 713 mmHg 76%
    15:00 +7°C° 0.4 mm 1 mps 713 mmHg 83%
    16:00 +6°C° 0.4 mm 1 mps 712 mmHg 91%
    17:00 +5°C° 2.6 mm 2 mps 712 mmHg 93%
    18:00 +4°C° 2.6 mm 2 mps 712 mmHg 95%
    19:00 +3°C° 2.6 mm 3 mps 712 mmHg 97%
    20:00 +3°C° 1.8 mm 3 mps 712 mmHg 96%
    21:00 +3°C° 1.8 mm 3 mps 711 mmHg 96%
    22:00 +2°C° 1.8 mm 3 mps 711 mmHg 95%
    23:00 +4°C° 0.3 mm 2 mps 710 mmHg 95%

    Day after tomorrow, 2 March, Monday

    Time Temperature Precipitation Wind Pressure Humidity
    00:00 +5°C° 0.3 mm 1 mps 710 mmHg 96%
    01:00 +5°C° 0.3 mm 1 mps 709 mmHg 96%
    02:00 +5°C° 0 mm 1 mps 709 mmHg 96%
    03:00 +5°C° 0 mm 1 mps 708 mmHg 96%
    04:00 +5°C° 0 mm 1 mps 708 mmHg 95%
    05:00 +5°C° 0.1 mm 1 mps 708 mmHg 95%
    06:00 +5°C° 0.1 mm 1 mps 708 mmHg 94%
    07:00 +4°C° 0.1 mm 2 mps 708 mmHg 93%
    08:00 +5°C° 0.2 mm 2 mps 709 mmHg 87%
    09:00 +6°C° 0.2 mm 2 mps 709 mmHg 80%
    10:00 +6°C° 0.2 mm 2 mps 710 mmHg 74%
    11:00 +7°C° 0 mm 2 mps 710 mmHg 72%
    12:00 +8°C° 0 mm 3 mps 710 mmHg 71%
    13:00 +8°C° 0 mm 3 mps 710 mmHg 69%
    14:00 +8°C° 0 mm 3 mps 710 mmHg 70%
    15:00 +7°C° 0 mm 4 mps 710 mmHg 72%
    16:00 +7°C° 0 mm 4 mps 710 mmHg 73%
    17:00 +6°C° 0 mm 4 mps 710 mmHg 77%
    18:00 +5°C° 0 mm 4 mps 710 mmHg 81%
    19:00 +5°C° 0 mm 3 mps 710 mmHg 85%
    20:00 +4°C° 0 mm 3 mps 710 mmHg 87%
    21:00 +4°C° 0 mm 3 mps 710 mmHg 89%
    22:00 +4°C° 0 mm 3 mps 710 mmHg 90%
    23:00 +4°C° 0 mm 3 mps 709 mmHg 90%

    3 March, Tuesday

    Time Temperature Precipitation Wind Pressure Humidity
    00:00 +4°C° 0 mm 3 mps 709 mmHg 89%
    01:00 +4°C° 0 mm 3 mps 709 mmHg 89%
    02:00 +5°C° 0.5 mm 2 mps 708 mmHg 91%
    03:00 +5°C° 0.5 mm 2 mps 708 mmHg 94%
    04:00 +6°C° 0.5 mm 1 mps 708 mmHg 96%
    05:00 +6°C° 2.3 mm 1 mps 708 mmHg 96%
    06:00 +5°C° 2.3 mm 2 mps 708 mmHg 97%
    07:00 +5°C° 2.3 mm 2 mps 709 mmHg 97%
    08:00 +5°C° 1.7 mm 2 mps 709 mmHg 95%
    09:00 +4°C° 1.7 mm 3 mps 709 mmHg 94%
    10:00 +4°C° 1.7 mm 4 mps 710 mmHg 92%
    11:00 +4°C° 0.4 mm 4 mps 710 mmHg 87%
    12:00 +5°C° 0.4 mm 5 mps 710 mmHg 83%
    13:00 +5°C° 0.4 mm 5 mps 711 mmHg 78%
    14:00 +5°C° 0.1 mm 5 mps 711 mmHg 80%
    15:00 +4°C° 0.1 mm 6 mps 711 mmHg 82%
    16:00 +3°C° 0.1 mm 6 mps 711 mmHg 83%
    17:00 +3°C° 0.1 mm 6 mps 712 mmHg 83%
    18:00 +3°C° 0.1 mm 6 mps 712 mmHg 83%
    19:00 +3°C° 0.1 mm 6 mps 713 mmHg 83%
    20:00 +3°C° 0 mm 6 mps 713 mmHg 82%
    21:00 +3°C° 0 mm 7 mps 713 mmHg 81%
    22:00 +3°C° 0 mm 7 mps 713 mmHg 80%
    23:00 +2°C° 0.1 mm 7 mps 713 mmHg 81%

    4 March, Wednesday

    Time Temperature Precipitation Wind Pressure Humidity
    00:00 +2°C° 0.1 mm 7 mps 713 mmHg 82%
    01:00 +2°C° 0.1 mm 7 mps 713 mmHg 84%
    02:00 +2°C° 0.4 mm 7 mps 712 mmHg 84%
    03:00 +2°C° 0.4 mm 7 mps 712 mmHg 83%
    04:00 0°C° 0.4 mm 8 mps 712 mmHg 83%
    05:00 0°C° 0.3 mm 7 mps 712 mmHg 83%
    06:00 0°C° 0.3 mm 7 mps 712 mmHg 84%
    07:00 0°C° 0.3 mm 7 mps 712 mmHg 84%
    08:00 0°C° 0.3 mm 7 mps 712 mmHg 81%
    09:00 +2°C° 0.3 mm 7 mps 713 mmHg 79%
    10:00 +2°C° 0.3 mm 6 mps 713 mmHg 76%
    11:00 +3°C° 0 mm 6 mps 713 mmHg 72%
    12:00 +3°C° 0 mm 5 mps 713 mmHg 69%
    13:00 +5°C° 0 mm 5 mps 712 mmHg 65%
    14:00 +5°C° 0 mm 4 mps 712 mmHg 65%
    15:00 +5°C° 0 mm 4 mps 712 mmHg 65%
    16:00 +5°C° 0 mm 3 mps 712 mmHg 65%
    17:00 +4°C° 0 mm 3 mps 712 mmHg 69%
    18:00 +4°C° 0 mm 2 mps 712 mmHg 74%
    19:00 +3°C° 0 mm 2 mps 712 mmHg 79%
    20:00 +2°C° 0 mm 2 mps 712 mmHg 78%
    21:00 +2°C° 0 mm 2 mps 713 mmHg 78%
    22:00 +2°C° 0 mm 2 mps 713 mmHg 78%
    23:00 +2°C° 0 mm 2 mps 713 mmHg 78%

    5 March, Thursday

    Time Temperature Precipitation Wind Pressure Humidity
    00:00 +2°C° 0 mm 2 mps 713 mmHg 78%
    01:00 +1°C° 0 mm 2 mps 713 mmHg 77%
    02:00 +1°C° 0 mm 2 mps 713 mmHg 77%
    03:00 +1°C° 0 mm 2 mps 713 mmHg 77%
    04:00 +2°C° 0 mm 1 mps 713 mmHg 76%
    05:00 +3°C° 0 mm 1 mps 713 mmHg 76%
    06:00 +3°C° 0 mm 1 mps 714 mmHg 76%
    07:00 +3°C° 0 mm 1 mps 714 mmHg 75%
    08:00 +3°C° 0 mm 2 mps 714 mmHg 70%
    09:00 +5°C° 0 mm 2 mps 714 mmHg 66%
    10:00 +6°C° 0 mm 2 mps 715 mmHg 61%
    11:00 +6°C° 0 mm 2 mps 715 mmHg 60%
    12:00 +7°C° 0 mm 2 mps 715 mmHg 59%
    13:00 +8°C° 0 mm 2 mps 715 mmHg 58%
    14:00 +7°C° 0 mm 2 mps 715 mmHg 60%
    15:00 +7°C° 0 mm 2 mps 715 mmHg 62%
    16:00 +7°C° 0 mm 2 mps 714 mmHg 63%
    17:00 +5°C° 0 mm 2 mps 714 mmHg 70%
    18:00 +5°C° 0 mm 1 mps 714 mmHg 76%
    19:00 +4°C° 0 mm 1 mps 714 mmHg 82%
    20:00 +4°C° 0 mm 1 mps 714 mmHg 83%
    21:00 +4°C° 0 mm 1 mps 714 mmHg 84%
    22:00 +3°C° 0 mm 1 mps 714 mmHg 85%
    23:00 +3°C° 0.1 mm 1 mps 714 mmHg 86%
    Show more